Powrót do katalogu

PRATHAM

AktywnyNaukaSSO
NORAD 41783·PAYLOAD·🇮🇳 India

Wystrzelony Sep 26, 2016 z Satish Dhawan Space Centre

Loading…

Następne Przeloty (najbliższe 24 godziny)

TLE

ŚwieżeSource: Space-Track

Epoka: Sep 14, 2026, 10:39 UTC

1 41783U 16059A   26257.44402367  .00000464  00000-0  90167-4 0  9997
2 41783  97.8402 250.4179 0029848 295.7407  64.0718 14.67295421532601

Śledź PRATHAM w czasie rzeczywistym z AllMySat

Download on the App Store